Change the Weather History Date:

Wednesday, December 12, 2012

  Actual Average Record
Temperature  
Mean Temperature 30 °F -  
Max Temperature 42 °F 40 °F 64 °F (2007)
Min Temperature 19 °F 24 °F -7 °F (1962)
Degree Days  
Heating Degree Days 34    
Moisture  
Dew Point 22 °F    
Average Humidity 76    
Maximum Humidity 89    
Minimum Humidity 47    
Precipitation  
Precipitation 0.00 in - - ()
Sea Level Pressure  
Sea Level Pressure 30.40 in    
Wind  
Wind Speed 0 mph (ESE)    
Max Wind Speed 5 mph    
Max Gust Speed -    
Visibility 8 miles    
Events      
Averages and records for this station are not official NWS values.
T = Trace of Precipitation, MM = Missing Value Source: NWS Daily Summary

Daily Weather History Graph

Daily Weather History Graph

Search for Another Location

Airport or City:

Trip Planner

Search our weather history database for the weather conditions in past years. The results will help you decide how hot, cold, wet, or windy it might be!

Date:

Astronomy

Dec. 12, 2012 Rise Set
Actual Time 7:42 AM EST 5:06 PM EST
Civil Twilight 7:12 AM EST 5:36 PM EST
Nautical Twilight 6:38 AM EST 6:10 PM EST
Astronomical Twilight 6:05 AM EST 6:43 PM EST
Moon 6:45 AM EST (12/12) 4:42 PM EST (12/12)
Length of Visible Light 10h 24m
Length of Day
9h 23m
Waning Crescent, 1% of the Moon is Illuminated
Dec 12
Waning Crescent
Dec 13
New
Dec 20
First Quarter
Dec 28
Full
Jan 4
Last Quarter

Hourly Weather History & Observations

Time (EST) Temp. Windchill Dew Point Humidity Pressure Visibility Wind Dir Wind Speed Gust Speed Precip Events Conditions
12:53 AM 26.1 °F - 19.9 °F 78% 30.29 in 9.0 mi Calm Calm - N/A   Clear
1:53 AM 24.1 °F - 19.9 °F 84% 30.30 in 9.0 mi Calm Calm - N/A   Clear
2:53 AM 21.9 °F - 18.0 °F 85% 30.32 in 9.0 mi Calm Calm - N/A   Clear
3:53 AM 21.9 °F - 17.1 °F 82% 30.34 in 8.0 mi Calm Calm - N/A   Clear
4:53 AM 21.9 °F - 18.0 °F 85% 30.35 in 7.0 mi Calm Calm - N/A   Clear
5:53 AM 21.9 °F - 18.0 °F 85% 30.36 in 5.0 mi Calm Calm - N/A   Clear
6:53 AM 21.9 °F - 17.1 °F 82% 30.40 in 6.0 mi Calm Calm - N/A   Haze
7:53 AM 19.9 °F - 17.1 °F 89% 30.42 in 4.0 mi Calm Calm - N/A   Clear
8:53 AM 26.1 °F 21.9 °F 23.0 °F 88% 30.42 in 5.0 mi SSE 3.5 mph - N/A   Clear
9:53 AM 30.0 °F - 26.1 °F 85% 30.43 in 7.0 mi Calm Calm - N/A   Clear
10:53 AM 34.0 °F - 26.1 °F 73% 30.44 in 10.0 mi Calm Calm - N/A   Clear
11:53 AM 37.0 °F - 24.1 °F 59% 30.43 in 10.0 mi Calm Calm - N/A   Clear
12:53 PM 39.0 °F - 25.0 °F 57% 30.41 in 10.0 mi Calm Calm - N/A   Clear
1:53 PM 41.0 °F - 26.1 °F 55% 30.39 in 10.0 mi Calm Calm - N/A   Clear
2:53 PM 42.1 °F - 23.0 °F 47% 30.39 in 10.0 mi Calm Calm - N/A   Clear
3:53 PM 41.0 °F - 24.1 °F 51% 30.39 in 10.0 mi Calm Calm - N/A   Clear
4:53 PM 37.9 °F 34.4 °F 26.1 °F 62% 30.40 in 10.0 mi East 4.6 mph - N/A   Clear
5:53 PM 32.0 °F - 26.1 °F 79% 30.41 in 10.0 mi Calm Calm - N/A   Clear
6:53 PM 30.0 °F - 25.0 °F 82% 30.42 in 10.0 mi Calm Calm - N/A   Clear
7:53 PM 28.0 °F - 23.0 °F 81% 30.43 in 10.0 mi Calm Calm - N/A   Clear
8:53 PM 26.1 °F - 23.0 °F 88% 30.44 in 10.0 mi Calm Calm - N/A   Clear
9:53 PM 26.1 °F - 21.0 °F 81% 30.45 in 8.0 mi Calm Calm - N/A   Clear
10:53 PM 23.0 °F - 19.9 °F 88% 30.44 in 9.0 mi Calm Calm - N/A   Clear
11:53 PM 23.0 °F - 18.0 °F 81% 30.43 in 7.0 mi Calm Calm - N/A   Clear